TimeEST,TemperatureF,Dew PointF,Humidity,Sea Level PressureIn,VisibilityMPH,Wind Direction,Wind SpeedMPH,Gust SpeedMPH,PrecipitationIn,Events,Conditions,WindDirDegrees,DateUTC
12:15 AM,30.2,30.2,100,30.28,3.0,NE,3.5,-,N/A,Snow,Light Snow,50,2013-12-09 05:15:00
12:35 AM,30.2,30.2,100,30.28,1.2,NE,3.5,-,0.01,Snow,Light Snow,40,2013-12-09 05:35:00
12:55 AM,30.2,30.2,100,30.27,1.2,NE,4.6,-,0.02,Snow,Light Snow,40,2013-12-09 05:55:00
1:15 AM,-9999,-9999,N/A,30.26,1.5,ENE,4.6,-,0.01,,Overcast,60,2013-12-09 06:15:00
1:35 AM,32.0,32.0,100,30.25,1.8,NE,3.5,-,0.06,Rain,Light Rain,50,2013-12-09 06:35:00
1:55 AM,32.0,32.0,100,30.24,3.0,NE,4.6,-,0.09,Rain,Light Rain,40,2013-12-09 06:55:00
2:15 AM,32.0,32.0,100,30.24,3.0,NNE,5.8,-,0.03,Rain,Rain,30,2013-12-09 07:15:00
2:35 AM,32.0,32.0,100,30.21,3.0,NE,4.6,-,0.09,Rain,Rain,50,2013-12-09 07:35:00
2:55 AM,32.0,32.0,100,30.19,5.0,NE,4.6,-,0.11,Rain,Light Rain,40,2013-12-09 07:55:00
3:15 AM,32.0,32.0,100,30.18,3.0,NE,3.5,-,0.01,Rain,Light Rain,50,2013-12-09 08:15:00
3:35 AM,32.0,32.0,100,30.15,1.5,ENE,10.4,17.3,0.04,,Overcast,70,2013-12-09 08:35:00
3:55 AM,32.0,32.0,100,30.15,1.8,Calm,Calm,-,0.07,Rain,Rain,0,2013-12-09 08:55:00
4:15 AM,32.0,32.0,100,30.17,2.0,Calm,Calm,-,0.02,Rain,Light Rain,0,2013-12-09 09:15:00
4:35 AM,32.0,32.0,100,30.15,1.2,NE,3.5,-,0.09,Rain,Rain,50,2013-12-09 09:35:00
4:55 AM,32.0,32.0,100,30.15,1.5,Calm,Calm,-,0.14,Rain,Rain,0,2013-12-09 09:55:00
5:15 AM,32.0,32.0,100,30.15,2.5,Calm,Calm,-,0.04,Rain,Light Rain,0,2013-12-09 10:15:00
5:35 AM,32.0,32.0,100,30.14,3.0,NE,3.5,-,0.06,Rain,Light Rain,50,2013-12-09 10:35:00
5:55 AM,32.0,32.0,100,30.14,5.0,Calm,Calm,-,0.06,Rain,Light Rain,0,2013-12-09 10:55:00
6:15 AM,33.8,33.8,100,30.13,2.5,ENE,5.8,-,N/A,Rain,Light Rain,60,2013-12-09 11:15:00
6:35 AM,33.8,33.8,100,30.12,3.0,NNE,3.5,-,N/A,Rain,Light Rain,20,2013-12-09 11:35:00
6:55 AM,33.8,33.8,100,30.14,2.5,Calm,Calm,-,0.04,Snow,Light Snow,0,2013-12-09 11:55:00
7:15 AM,33.8,33.8,100,30.13,4.0,North,3.5,-,N/A,,Overcast,10,2013-12-09 12:15:00
7:35 AM,33.8,33.8,100,30.12,5.0,Calm,Calm,-,N/A,,Overcast,0,2013-12-09 12:35:00
7:55 AM,33.8,33.8,100,30.10,9.0,ENE,4.6,-,N/A,,Overcast,70,2013-12-09 12:55:00
8:15 AM,33.8,33.8,100,30.10,7.0,ENE,3.5,-,N/A,,Overcast,70,2013-12-09 13:15:00
8:35 AM,33.8,33.8,100,30.09,5.0,East,4.6,-,N/A,,Overcast,90,2013-12-09 13:35:00
8:55 AM,33.8,33.8,100,30.10,5.0,Calm,Calm,-,N/A,,Overcast,0,2013-12-09 13:55:00
9:15 AM,33.8,33.8,100,30.10,4.0,East,3.5,-,N/A,,Overcast,80,2013-12-09 14:15:00
9:35 AM,33.8,33.8,100,30.11,4.0,Calm,Calm,-,N/A,,Overcast,0,2013-12-09 14:35:00
9:55 AM,33.8,33.8,100,30.10,3.0,Calm,Calm,-,N/A,,Overcast,0,2013-12-09 14:55:00
10:15 AM,33.8,33.8,100,30.10,2.0,Calm,Calm,-,N/A,,Overcast,0,2013-12-09 15:15:00
10:35 AM,33.8,33.8,100,30.09,1.0,Calm,Calm,-,N/A,,Overcast,0,2013-12-09 15:35:00
10:55 AM,33.8,33.8,100,30.08,1.0,WNW,4.6,-,N/A,Snow,Light Snow,290,2013-12-09 15:55:00
11:15 AM,33.8,33.8,100,30.07,0.8,WNW,4.6,-,0.01,Snow,Light Snow,300,2013-12-09 16:15:00
11:35 AM,33.8,33.8,100,30.05,0.2,WNW,3.5,-,0.03,Snow,Light Snow,290,2013-12-09 16:35:00
11:55 AM,33.8,33.8,100,30.05,0.2,Calm,Calm,-,0.05,,Overcast,0,2013-12-09 16:55:00
12:15 PM,33.8,33.8,100,30.03,0.2,Calm,Calm,-,N/A,Fog,Fog,0,2013-12-09 17:15:00
12:35 PM,33.8,33.8,100,30.03,0.2,Calm,Calm,-,0.01,Fog,Fog,0,2013-12-09 17:35:00
12:55 PM,33.8,33.8,100,30.03,0.2,West,4.6,-,0.02,Snow,Light Snow,280,2013-12-09 17:55:00
1:15 PM,33.8,33.8,100,30.03,0.2,Calm,Calm,-,0.03,Snow,Light Snow,0,2013-12-09 18:15:00
1:35 PM,33.8,33.8,100,30.02,0.2,West,4.6,-,0.05,Snow,Light Snow,280,2013-12-09 18:35:00
1:55 PM,33.8,33.8,100,30.01,0.2,Calm,Calm,-,0.14,Snow,Light Snow,0,2013-12-09 18:55:00
2:15 PM,33.8,33.8,100,30.02,0.2,West,3.5,-,0.50,Snow,Light Snow,280,2013-12-09 19:15:00
2:35 PM,33.8,33.8,100,30.03,0.2,West,6.9,-,0.52,Fog,Fog,280,2013-12-09 19:35:00
2:55 PM,33.8,33.8,100,30.03,1.0,WSW,4.6,-,0.52,Snow,Light Snow,250,2013-12-09 19:55:00
3:15 PM,33.8,33.8,100,30.03,1.2,WNW,5.8,-,N/A,,Overcast,290,2013-12-09 20:15:00
3:35 PM,33.8,33.8,100,30.03,1.5,West,6.9,-,N/A,,Overcast,280,2013-12-09 20:35:00
3:55 PM,33.8,33.8,100,30.03,0.5,West,6.9,-,N/A,,Overcast,270,2013-12-09 20:55:00
4:15 PM,33.8,33.8,100,30.03,0.2,West,6.9,-,N/A,Fog,Fog,280,2013-12-09 21:15:00
4:35 PM,33.8,33.8,100,30.03,0.2,West,4.6,-,N/A,Fog,Fog,260,2013-12-09 21:35:00
4:55 PM,33.8,33.8,100,30.03,0.5,West,4.6,-,N/A,Fog,Fog,270,2013-12-09 21:55:00
5:15 PM,33.8,33.8,100,30.02,0.2,WNW,5.8,-,N/A,Fog,Fog,290,2013-12-09 22:15:00
5:35 PM,33.8,33.8,100,30.03,0.2,WNW,9.2,-,N/A,Fog,Fog,290,2013-12-09 22:35:00
5:55 PM,33.8,33.8,100,30.03,0.2,WNW,6.9,-,N/A,Fog,Fog,290,2013-12-09 22:55:00
6:15 PM,33.8,33.8,100,30.04,0.2,WNW,6.9,-,N/A,Fog,Fog,290,2013-12-09 23:15:00
6:35 PM,33.8,33.8,100,30.05,0.2,WNW,9.2,-,N/A,,Overcast,290,2013-12-09 23:35:00
6:55 PM,33.8,33.8,100,30.06,0.2,West,6.9,-,N/A,Fog,Fog,280,2013-12-09 23:55:00
7:15 PM,33.8,33.8,100,30.07,0.2,WNW,9.2,-,N/A,Fog,Fog,290,2013-12-10 00:15:00
7:35 PM,33.8,33.8,100,30.07,0.2,WNW,9.2,-,N/A,Fog,Fog,300,2013-12-10 00:35:00
7:55 PM,33.8,33.8,100,30.08,0.2,NW,8.1,-,N/A,Fog,Fog,310,2013-12-10 00:55:00
8:15 PM,33.8,33.8,100,30.07,0.2,WNW,5.8,-,N/A,Fog,Fog,290,2013-12-10 01:15:00
8:35 PM,33.8,33.8,100,30.07,0.2,WNW,6.9,-,N/A,Fog,Fog,290,2013-12-10 01:35:00
8:55 PM,33.8,33.8,100,30.07,0.2,WNW,5.8,-,N/A,Fog,Fog,290,2013-12-10 01:55:00
9:15 PM,33.8,33.8,100,30.07,0.2,WNW,6.9,-,N/A,Fog,Fog,290,2013-12-10 02:15:00
9:35 PM,33.8,33.8,100,30.06,0.2,WNW,5.8,-,N/A,Fog,Fog,300,2013-12-10 02:35:00
9:55 PM,33.8,33.8,100,30.07,0.2,NW,9.2,-,N/A,Fog,Fog,310,2013-12-10 02:55:00
10:15 PM,33.8,33.8,100,30.07,0.2,WNW,9.2,-,N/A,Fog,Fog,300,2013-12-10 03:15:00
10:35 PM,33.8,33.8,100,30.07,0.2,WNW,9.2,-,N/A,Fog,Fog,300,2013-12-10 03:35:00
10:55 PM,33.8,33.8,100,30.06,0.5,West,5.8,-,N/A,Fog,Fog,280,2013-12-10 03:55:00
11:15 PM,33.8,33.8,100,30.06,0.5,WNW,5.8,-,N/A,Fog,Fog,300,2013-12-10 04:15:00
11:35 PM,33.8,33.8,100,30.06,0.8,WNW,6.9,-,N/A,,Overcast,300,2013-12-10 04:35:00
11:55 PM,33.8,33.8,100,30.05,0.5,WNW,5.8,-,N/A,Fog,Fog,300,2013-12-10 04:55:00